EW5720 Weather Reports


time (UTC)temp
C
wind
direction
speed
KPH
gust
KPH
rain 1hr
cm
rain 24hr
cm
rain mn
cm
humidity
%
barometer
mb
20260504050555 11 213 6.4 14.5 0.00 0.00 0.00 48 1004.1
20260504045552 11 217 4.8 11.3 0.00 0.00 0.00 47 1004.2
20260504045052 11 218 1.6 8.0 0.00 0.00 0.00 47 1004.3
20260504044602 11 215 1.6 8.0 0.00 0.00 0.00 48 1004.4
20260504044055 11 215 1.6 8.0 0.00 0.00 0.00 47 1004.4
20260504043555 11 215 3.2 8.0 0.00 0.00 0.00 47 1004.5
20260504043054 11 215 1.6 9.7 0.00 0.00 0.00 47 1004.5
20260504042556 11 215 4.8 9.7 0.00 0.00 0.00 47 1004.5
20260504042055 11 215 4.8 9.7 0.00 0.00 0.00 46 1004.6
20260504041556 11 217 3.2 9.7 0.00 0.00 0.00 46 1004.6
20260504041055 11 217 4.8 8.0 0.00 0.00 0.00 46 1004.7
20260504040557 11 219 3.2 8.0 0.00 0.00 0.00 46 1004.7
20260504040056 11 220 4.8 9.7 0.00 0.00 0.00 46 1004.9
20260504035554 11 221 4.8 9.7 0.00 0.00 0.00 45 1005.0
20260504035054 11 220 6.4 9.7 0.00 0.00 0.00 44 1005.0
20260504034614 11 227 4.8 11.3 0.00 0.00 0.00 43 1005.2
20260504034054 12 234 6.4 11.3 0.00 0.00 0.00 43 1005.2
20260504033554 12 283 6.4 9.7 0.00 0.00 0.00 42 1005.3
20260504033056 12 360 3.2 6.4 0.00 0.00 0.00 42 1005.4
20260504032554 12 0 1.6 6.4 0.00 0.00 0.00 42 1005.4
20260504032054 12 360 3.2 4.8 0.00 0.00 0.00 42 1005.5
20260504031556 12 311 3.2 4.8 0.00 0.00 0.00 41 1005.5
20260504031054 12 311 1.6 4.8 0.00 0.00 0.00 41 1005.3
20260504030554 13 312 1.6 4.8 0.00 0.00 0.00 42 1005.4
20260504030056 13 312 1.6 4.8 0.00 0.00 0.00 42 1005.5
20260504025554 13 311 1.6 4.8 0.00 0.00 0.00 41 1005.6
20260504025054 13 311 1.6 4.8 0.00 0.00 0.00 41 1005.6
20260504024558 13 311 1.6 4.8 0.00 0.00 0.00 40 1005.5
20260504024055 13 313 3.2 6.4 0.00 0.00 0.00 39 1005.3
20260504023555 13 313 3.2 6.4 0.00 0.00 0.00 39 1005.4
20260504023056 14 313 1.6 6.4 0.00 0.00 0.00 38 1005.3
20260504022555 14 0 3.2 6.4 0.00 0.00 0.00 39 1005.3
20260504022054 14 360 0.0 4.8 0.00 0.00 0.00 38 1005.3
20260504021601 15 0 0.0 4.8 0.00 0.00 0.00 38 1005.4
20260504021056 15 0 1.6 4.8 0.00 0.00 0.00 36 1005.3
20260504020553 15 314 0.0 4.8 0.00 0.00 0.00 36 1005.4
20260504020057 15 0 1.6 6.4 0.00 0.00 0.00 36 1005.4
20260504015555 16 313 1.6 6.4 0.00 0.00 0.00 36 1005.5
20260504015054 16 313 1.6 6.4 0.00 0.00 0.00 35 1005.5
20260504014611 16 313 3.2 6.4 0.00 0.00 0.00 34 1005.5
20260504014055 16 315 3.2 4.8 0.00 0.00 0.00 34 1005.6
20260504013557 17 317 1.6 4.8 0.00 0.00 0.00 33 1005.5
20260504013055 17 317 1.6 8.0 0.00 0.00 0.00 33 1005.5
20260504012554 17 317 3.2 8.0 0.00 0.00 0.00 33 1005.6
20260504012054 17 316 3.2 8.0 0.00 0.00 0.00 32 1005.5
20260504011558 17 319 3.2 6.4 0.00 0.00 0.00 32 1005.4
20260504011054 18 319 3.2 9.7 0.00 0.00 0.00 32 1005.5
20260504010554 18 320 3.2 9.7 0.00 0.00 0.00 32 1005.4
20260504010100 18 320 3.2 9.7 0.00 0.00 0.00 31 1005.4
20260504005555 18 303 3.2 12.9 0.00 0.00 0.00 31 1005.4
20260504005055 18 302 4.8 12.9 0.00 0.00 0.00 32 1005.5
20260504004555 18 301 4.8 19.3 0.00 0.00 0.00 32 1005.5
20260504004054 18 305 6.4 19.3 0.00 0.00 0.00 29 1005.4
20260504003554 18 302 8.0 19.3 0.00 0.00 0.00 31 1005.5
20260504003100 18 294 8.0 19.3 0.00 0.00 0.00 29 1005.4
20260504002555 19 298 8.0 16.1 0.00 0.00 0.00 29 1005.5
20260504002054 19 286 6.4 19.3 0.00 0.00 0.00 32 1005.5
20260504001559 20 279 4.8 19.3 0.00 0.00 0.00 29 1005.5
20260504001054 20 300 8.0 22.5 0.00 0.00 0.00 28 1005.5
20260504000553 20 302 8.0 22.5 0.00 0.00 0.00 27 1005.6
20260504000056 20 360 9.7 24.1 0.00 0.00 0.00 27 1005.4
20260503235554 20 360 11.3 24.1 0.00 0.00 0.00 28 1005.5
20260503235057 20 294 12.9 22.5 0.00 0.00 0.00 25 1005.5
20260503234554 20 360 6.4 20.9 0.00 0.00 0.00 29 1005.5
20260503234055 20 360 8.0 20.9 0.00 0.00 0.00 27 1005.5
20260503233555 20 360 6.4 20.9 0.00 0.00 0.00 27 1005.5
20260503233054 21 360 9.7 20.9 0.00 0.00 0.00 26 1005.5
20260503232554 21 288 9.7 25.7 0.00 0.00 0.00 26 1005.5
20260503232058 21 296 9.7 25.7 0.00 0.00 0.00 28 1005.5
20260503231555 21 290 12.9 25.7 0.00 0.00 0.00 26 1005.5
20260503231054 21 360 9.7 25.7 0.00 0.00 0.00 26 1005.6
20260503230555 21 360 11.3 20.9 0.00 0.00 0.00 25 1005.6
20260503230100 21 360 12.9 24.1 0.00 0.00 0.00 24 1005.6
20260503225554 21 279 11.3 24.1 0.00 0.00 0.00 29 1005.6
20260503225054 22 278 9.7 24.1 0.00 0.00 0.00 26 1005.6
20260503224558 22 360 8.0 17.7 0.00 0.00 0.00 26 1005.6
20260503224054 22 360 8.0 17.7 0.00 0.00 0.00 26 1005.5
20260503223554 22 360 6.4 17.7 0.00 0.00 0.00 26 1005.5
20260503223100 22 324 8.0 17.7 0.00 0.00 0.00 26 1005.5
20260503222553 22 305 8.0 19.3 0.00 0.00 0.00 25 1005.5
20260503222053 22 360 6.4 19.3 0.00 0.00 0.00 25 1005.4
20260503221601 22 360 11.3 19.3 0.00 0.00 0.00 25 1005.5
20260503221054 22 305 6.4 19.3 0.00 0.00 0.00 29 1005.4
20260503220554 22 333 9.7 19.3 0.00 0.00 0.00 24 1005.5
20260503220057 22 314 9.7 20.9 0.00 0.00 0.00 27 1005.5
20260503215553 22 328 8.0 20.9 0.00 0.00 0.00 24 1005.6
20260503215054 22 10 8.0 22.5 0.00 0.00 0.00 24 1005.5
20260503214602 22 304 8.0 22.5 0.00 0.00 0.00 27 1005.6
20260503214054 22 336 8.0 22.5 0.00 0.00 0.00 23 1005.6
20260503213554 22 330 6.4 22.5 0.00 0.00 0.00 27 1005.7
20260503213107 22 298 11.3 22.5 0.00 0.00 0.00 24 1005.8
20260503212558 23 288 11.3 29.0 0.00 0.00 0.00 23 1005.8
20260503212054 23 329 8.0 29.0 0.00 0.00 0.00 23 1005.8
20260503211555 23 334 8.0 22.5 0.00 0.00 0.00 24 1005.8
20260503211053 23 360 11.3 22.5 0.00 0.00 0.00 26 1005.8
20260503210554 23 307 8.0 25.7 0.00 0.00 0.00 27 1005.7
20260503210105 22 360 8.0 27.4 0.00 0.00 0.00 26 1005.8
20260503205555 23 317 9.7 27.4 0.00 0.00 0.00 26 1005.8
20260503205056 23 312 12.9 27.4 0.00 0.00 0.00 29 1005.8
20260503204608 22 360 11.3 19.3 0.00 0.00 0.00 24 1005.8
20260503204058 22 360 8.0 25.7 0.00 0.00 0.00 28 1005.9
20260503203554 23 314 6.4 25.7 0.00 0.00 0.00 27 1005.9
20260503203105 23 322 11.3 25.7 0.00 0.00 0.00 28 1006.0
20260503202554 23 314 8.0 22.5 0.00 0.00 0.00 27 1005.9
20260503202054 23 302 9.7 22.5 0.00 0.00 0.00 25 1006.0
20260503201556 23 360 12.9 24.1 0.00 0.00 0.00 26 1005.9
20260503201054 22 327 11.3 24.1 0.00 0.00 0.00 32 1006.0
20260503200557 22 360 8.0 24.1 0.00 0.00 0.00 31 1005.9
20260503195555 23 360 9.7 27.4 0.00 0.00 0.00 26 1006.1
20260503195054 23 360 9.7 27.4 0.00 0.00 0.00 32 1006.1
20260503194600 22 360 9.7 25.7 0.00 0.00 0.00 26 1006.0
20260503194058 23 11 11.3 30.6 0.00 0.00 0.00 26 1006.1
20260503193555 23 306 11.3 30.6 0.00 0.00 0.00 27 1006.0
20260503193112 23 279 8.0 20.9 0.00 0.00 0.00 28 1006.0
20260503192554 23 315 8.0 20.9 0.00 0.00 0.00 24 1006.1
20260503192054 22 360 8.0 24.1 0.00 0.00 0.00 29 1006.2
20260503191602 22 330 11.3 24.1 0.00 0.00 0.00 27 1006.4
20260503191054 22 360 9.7 24.1 0.00 0.00 0.00 29 1006.4
20260503190554 22 360 9.7 24.1 0.00 0.00 0.00 27 1006.2
20260503190057 22 311 9.7 22.5 0.00 0.00 0.00 25 1006.2
20260503185554 23 344 8.0 22.5 0.00 0.00 0.00 31 1006.3
20260503185058 22 317 8.0 25.7 0.00 0.00 0.00 28 1006.2
20260503184609 22 360 11.3 25.7 0.00 0.00 0.00 32 1006.2
20260503184054 22 20 11.3 24.1 0.00 0.00 0.00 28 1006.2
20260503183554 22 319 12.9 24.1 0.00 0.00 0.00 28 1006.2
20260503183109 22 328 9.7 32.2 0.00 0.00 0.00 36 1006.2
20260503182556 22 329 9.7 32.2 0.00 0.00 0.00 35 1006.3
20260503182057 22 360 9.7 29.0 0.00 0.00 0.00 34 1006.3
20260503181607 22 28 9.7 29.0 0.00 0.00 0.00 29 1006.3
20260503181054 22 318 8.0 30.6 0.00 0.00 0.00 31 1006.2
20260503180554 22 313 14.5 30.6 0.00 0.00 0.00 32 1006.4
20260503180058 22 339 9.7 24.1 0.00 0.00 0.00 32 1006.4
20260503175554 22 360 11.3 33.8 0.00 0.00 0.00 32 1006.4
20260503175059 22 360 11.3 33.8 0.00 0.00 0.00 36 1006.5
20260503174554 22 309 9.7 27.4 0.00 0.00 0.00 35 1006.4
20260503174054 21 311 11.3 27.4 0.00 0.00 0.00 33 1006.5
20260503173554 21 360 8.0 29.0 0.00 0.00 0.00 32 1006.4
20260503173101 21 324 11.3 29.0 0.00 0.00 0.00 36 1006.4
20260503172553 21 360 11.3 30.6 0.00 0.00 0.00 35 1006.5
20260503172053 21 9 11.3 30.6 0.00 0.00 0.00 35 1006.4
20260503171555 21 13 11.3 33.8 0.00 0.00 0.00 37 1006.6
20260503171053 21 360 11.3 33.8 0.00 0.00 0.00 40 1006.5
20260503170554 21 360 8.0 27.4 0.00 0.00 0.00 38 1006.5
20260503150553 16 349 9.7 22.5 0.00 0.00 0.00 49 1006.1
20260503131053 11 244 9.7 27.4 0.00 0.00 0.00 55 1006.2
20260503130553 11 218 9.7 25.7 0.00 0.00 0.00 59 1006.1
20260503110553 9 191 9.7 22.5 0.00 0.00 0.00 58 1006.5
20260503081622 11 211 14.5 24.1 0.00 0.00 0.00 47 1010.0
20260503081053 12 204 8.0 17.7 0.00 0.00 0.00 50 1010.0
20260503080553 12 184 8.0 19.3 0.00 0.00 0.00 49 1009.9
20260503080110 12 189 8.0 27.4 0.00 0.00 0.00 47 1009.9
20260503072553 12 229 16.1 25.7 0.00 0.00 0.00 42 1010.8
20260503072053 12 208 11.3 22.5 0.00 0.00 0.00 42 1010.9
20260503071558 12 262 12.9 30.6 0.00 0.00 0.00 42 1011.1
20260503071055 12 216 11.3 30.6 0.00 0.00 0.00 42 1011.0
20260503070558 12 217 14.5 24.1 0.00 0.00 0.00 42 1010.8
20260503070109 12 221 14.5 24.1 0.00 0.00 0.00 43 1010.6